User: anonymous   Login
Location: Meriden
(44.0740°N, 93.3870°W)
Time: 20:05:48
(UTC-05:00)
Language:

AO-27 - Orbit

View from above orbital plane
View from above orbital plane
View from above satellite
View from above satellite

Ground track
Ground track

The orbit data is extracted from the following two-line orbital elements,

1 22825U 93061C   16149.91270066 +.00000024 +00000-0 +26939-4 0  9999
2 22825 098.7577 106.0417 0008844 021.6687 338.4867 14.29956025182213
Epoch (UTC): 28 May 2016 21:54:17
Eccentricity: 0.0008844
inclination: 98.7577°
perigee height: 785 km
apogee height: 798 km
right ascension of ascending node: 106.0417°
argument of perigee: 21.6687°
revolutions per day: 14.29956025
mean anomaly at epoch: 338.4867°
orbit number at epoch: 18221

The dashed part of the orbit path shows where the satellite is in the earth's shadow,  

DLR